Keps
Threads by month
- ----- 2025 -----
- February
- January
- ----- 2024 -----
- December
- November
- October
- September
- August
- July
- June
- May
- April
- March
- February
- January
- ----- 2023 -----
- December
- November
- October
- September
- August
- July
- June
- May
- April
- March
- February
- January
- ----- 2022 -----
- December
- November
- October
- September
- August
- July
- June
- May
- April
- March
- February
- January
- ----- 2021 -----
- December
- November
- October
- September
- August
- July
- June
- May
- April
- March
- February
- January
- ----- 2020 -----
- December
- November
- October
- September
- August
- July
- June
- May
- April
- March
- February
- January
- ----- 2019 -----
- December
- November
- October
- September
- August
- July
- June
- May
- April
- March
- February
- January
- ----- 2018 -----
- December
- November
- October
- September
- August
- July
- June
- May
- April
- March
- February
- January
- ----- 2017 -----
- December
- November
- October
- September
- August
- July
- June
- May
- April
- March
- February
- January
- ----- 2016 -----
- December
- November
- October
- September
- August
- July
- June
- May
- April
- March
- February
- January
- ----- 2015 -----
- December
- November
- October
- September
- August
- July
- June
- May
- April
- March
- February
- January
- ----- 2014 -----
- December
- November
- October
- September
- August
- July
- June
- May
- April
- March
- February
- January
- ----- 2013 -----
- December
- November
- October
- September
- August
- July
- June
- May
- April
- March
- February
- January
- ----- 2012 -----
- December
- November
- October
- September
- August
- July
- June
- May
- April
- March
- February
- January
- ----- 2011 -----
- December
- November
- October
- September
- August
- July
- June
- May
- April
- March
- February
- January
- ----- 2010 -----
- December
- November
- October
- September
- August
- July
- June
- May
- April
- March
- February
- January
- ----- 2009 -----
- December
- November
- October
- September
- August
- July
- June
- May
- April
- March
- February
- January
- ----- 2008 -----
- December
- November
- October
- September
- August
- July
- June
- May
- April
- March
- February
- January
- ----- 2007 -----
- December
- November
- October
- September
- August
- July
- June
- May
- April
- March
- February
- January
- ----- 2006 -----
- December
- November
- October
- September
November 2014
- 1 participants
- 9 discussions
SB KEPS @ AMSAT $ORB14331.N
2Line Orbital Elements 14331.AMSAT
HR AMSAT ORBITAL ELEMENTS FOR AMATEUR SATELLITES IN NASA FORMAT
FROM WA5QGD FORT WORTH,TX November 27, 2014
BID: ORB14331.N
DECODE 2-LINE ELSETS WITH THE FOLLOWING KEY:
1 AAAAAU 00 0 0 BBBBB.BBBBBBBB .CCCCCCCC 00000-0 00000-0 0 DDDZ
2 AAAAA EEE.EEEE FFF.FFFF GGGGGGG HHH.HHHH III.IIII JJ.JJJJJJJJKKKKKZ
KEY: A-CATALOGNUM B-EPOCHTIME C-DECAY D-ELSETNUM E-INCLINATION F-RAAN
G-ECCENTRICITY H-ARGPERIGEE I-MNANOM J-MNMOTION K-ORBITNUM Z-CHECKSUM
TO ALL RADIO AMATEURS BT
AO-07
1 07530U 74089B 14331.01277297 -.00000001 00000-0 26588-3 0 1288
2 07530 101.4941 307.6031 0011915 338.9941 067.5751 12.53609260831929
FO-29
1 24278U 96046B 14331.86913483 -.00000009 00000-0 28563-4 0 5277
2 24278 098.5176 323.1527 0349702 232.8230 191.0353 13.53037480902804
SO-33
1 25509U 98061B 14330.42792823 .00000370 00000-0 62074-4 0 8894
2 25509 031.4322 320.9982 0348690 096.0188 028.7397 14.29754135840383
RS-22
1 27939U 03042A 14331.70660771 .00001680 00000-0 31778-3 0 776
2 27939 097.8207 137.8883 0012578 311.4056 048.6065 14.65551840596677
HO-68
1 36122U 09072B 14331.75160459 -.00000060 00000-0 -43517-4 0 1568
2 36122 100.2276 018.4803 0007395 219.4494 140.6080 13.16320719237953
AO-73
1 39444U 13066AE 14331.44946284 .00004065 00000-0 53779-3 0 3176
2 39444 097.7581 036.4594 0062362 073.3997 287.4051 14.79111651 53596
EO-79
1 40025U 14033R 14331.69981928 .00004384 00000-0 50721-3 0 4763
2 40025 097.9643 226.6000 0014053 117.0433 243.2230 14.85979447 23862
UO-11
1 14781U 84021B 14331.31848471 .00001103 00000-0 14570-3 0 6749
2 14781 097.8320 028.1003 0008649 019.2696 340.8843 14.81937138652127
AO-16
1 20439U 90005D 14331.07000182 .00000349 00000-0 14470-3 0 1809
2 20439 098.5225 265.4438 0011527 043.4013 020.7631 14.32436550297802
LO-19
1 20442U 90005G 14330.81130514 .00000228 00000-0 99839-4 0 1143
2 20442 098.4936 265.3550 0012246 032.8960 327.2984 14.32634616297966
AO-27
1 22825U 93061C 14330.82841576 .00000191 00000-0 91668-4 0 8286
2 22825 098.6829 276.1912 0008679 173.8924 239.0966 14.29789104104022
IO-26
1 22826U 93061D 14330.84898684 .00000221 00000-0 10286-3 0 5851
2 22826 098.6770 276.4065 0009333 166.5087 193.6347 14.30096740104169
GO-32
1 25397U 98043D 14331.86879850 .00000135 00000-0 78074-4 0 5077
2 25397 098.4927 283.9333 0001694 149.9066 267.4989 14.23488643851151
NO-44
1 26931U 01043C 14331.61951900 .00000292 00000-0 14432-3 0 7620
2 26931 067.0521 336.9929 0007495 271.7552 088.2691 14.30201358686976
SO-50
1 27607U 02058C 14331.53447044 .00001336 00000-0 21570-3 0 5841
2 27607 064.5570 094.2727 0066977 329.5108 030.2106 14.74168990641557
CO-55
1 27844U 03031E 14331.85901888 .00000436 00000-0 21870-3 0 794
2 27844 098.6975 338.2767 0010320 157.7240 322.6567 14.21631709591830
CO-57
1 27848U 03031J 14330.97470216 .00000450 00000-0 22649-3 0 191
2 27848 098.7072 337.2054 0010099 166.6961 258.8502 14.21301611591625
AO-51
1 28375U 04025K 14330.84743860 .00000291 00000-0 99157-4 0 07
2 28375 098.2705 272.3729 0082279 220.0376 139.4731 14.41510724547337
CP3
1 31129U 07012N 14331.51547098 .00001637 00000-0 36598-3 0 9099
2 31129 097.9547 301.4333 0096674 221.5671 254.8127 14.55183712403780
CO-65
1 32785U 08021C 14331.84027208 .00002386 00000-0 27891-3 0 1260
2 32785 097.6788 017.6160 0013788 016.8441 042.6662 14.85947400356321
PRISM
1 33493U 09002B 14331.80096359 .00007908 00000-0 80426-3 0 5235
2 33493 098.2504 154.6296 0016343 271.0658 088.8702 14.90969573316546
SOHLA-1
1 33496U 09002E 14331.86957097 .00000834 00000-0 14413-3 0 5233
2 33496 098.1885 093.4130 0007520 087.2145 028.3556 14.71043398313575
TISAT-1
1 36799U 10035E 14331.85811400 .00005282 00000-0 59767-3 0 7398
2 36799 098.0173 065.1758 0014165 144.2809 339.4649 14.86808491237022
STUDSAT
1 36801U 10035G 14331.19173057 .00031063 00000-0 23683-2 0 9427
2 36801 098.0528 076.2042 0005634 108.7104 311.8697 15.01955945237542
ALMASAT-1
1 38078U 12006B 14331.19825435 .00057118 35988-5 11043-2 0 2189
2 38078 069.4663 023.3403 0546749 174.4811 186.2709 14.61785183145342
XATCOBEO
1 38082U 12006F 14243.34478676 .13583328 43697-5 37939-3 0 5637
2 38082 069.3815 097.0364 0033293 225.1799 135.4582 16.41261006136239
CUBEBUG-1
1 39153U 13018D 14331.52076231 .00002876 00000-0 40164-3 0 6754
2 39153 098.0325 051.4512 0017877 180.6522 179.4668 14.78331459 85674
ESTCUBE-1
1 39161U 13021C 14331.77034640 .00002583 00000-0 43408-3 0 7000
2 39161 098.0874 051.4130 0008633 232.7070 127.3336 14.70475768 83637
DUCHIFAT-1
1 40021U 14033M 14331.67887127 .00005869 00000-0 67044-3 0 4768
2 40021 097.9669 226.6634 0015137 120.5056 239.7678 14.86356602 23851
NANOSATCBR1
1 40024U 14033Q 14331.76003563 .00005299 00000-0 60913-3 0 4692
2 40024 097.9644 226.6789 0014344 118.4225 241.8449 14.86152724 23861
DTUSAT-2
1 40030U 14033W 14331.67276833 .00004138 00000-0 48369-3 0 4659
2 40030 097.9651 226.4632 0013994 112.5594 247.7117 14.85594417 23859
ANTELSAT
1 40034U 14033AA 14331.74169051 .00003456 00000-0 54469-3 0 4755
2 40034 097.9639 223.0544 0062611 045.0902 315.5379 14.71776138 23656
MET-2/21
1 22782U 93055A 14331.19728516 .00000028 00000-0 11428-4 0 2346
2 22782 082.5510 043.9614 0023082 165.0308 260.4142 13.83754115 72667
OKEAN-4
1 23317U 94066A 14331.55001509 .00002365 00000-0 26730-3 0 7195
2 23317 082.5384 274.7193 0018429 279.0168 202.9028 14.86006443 87361
NOAA-14
1 23455U 94089A 14331.47436634 -.00000007 00000-0 19436-4 0 9971
2 23455 098.7693 051.9378 0008416 296.1372 192.2291 14.14004858 27027
NOAA-15
1 25338U 98030A 14331.53138778 .00000223 00000-0 11298-3 0 4362
2 25338 098.7631 325.1663 0011145 039.3809 069.3689 14.25514755860113
RESURS
1 25394U 98043A 14331.88580431 .00000094 00000-0 58580-4 0 8178
2 25394 098.4372 289.5509 0002364 123.3794 252.0435 14.24419455851622
FENGYUN1
1 25730U 99025A 14331.46013507 .00003420 00000-0 18697-2 0 3053
2 25730 098.9271 291.6910 0022466 009.6801 138.5637 14.12520150800560
OKEAN-0
1 25860U 99039A 14331.88790388 .00001212 00000-0 18524-3 0 4268
2 25860 098.0665 295.0098 0001055 115.8128 297.0256 14.75598146826295
NOAA-16
1 26536U 00055A 14331.43727150 .00000128 00000-0 92860-4 0 9342
2 26536 098.9710 032.3424 0011462 085.3340 274.9141 14.13056535731173
NOAA-17
1 27453U 02032A 14331.46999053 .00000220 00000-0 11187-3 0 8247
2 27453 098.3240 322.6645 0012580 059.2727 300.9690 14.24821934645937
NOAA-18
1 28654U 05018A 14331.50795133 .00000258 00000-0 16582-3 0 3471
2 28654 099.1667 314.4402 0014697 162.8797 305.1016 14.12104597490610
NOAA-19
1 33591U 09005A 14331.50140858 .00000288 00000-0 18232-3 0 4787
2 33591 098.9647 276.1925 0014379 023.0039 085.2261 14.11815469299036
HUBBLE
1 20580U 90037B 14331.64992263 .00004445 00000-0 28375-3 0 1657
2 20580 028.4714 042.0471 0002717 228.5861 266.8407 15.06267569149385
ISS
1 25544U 98067A 14331.62393138 .00017205 00000-0 29226-3 0 4711
2 25544 051.6475 009.2796 0007375 073.1803 068.6923 15.51538622916689
CO-58
1 28895U 05043F 14330.82196567 .00001288 00000-0 26380-3 0 9305
2 28895 097.8228 164.1921 0016709 213.2945 146.7207 14.62248216484013
FALCON
1 30776U 07006E 14331.80418927 .00013835 00000-0 64158-3 0 131
2 30776 035.4274 178.9836 0003683 307.0616 116.1112 15.19292601425601
MAST
1 31126U 07012K 14331.15636182 .00001134 00000-0 25595-3 0 2123
2 31126 097.9347 303.7488 0091189 205.1694 292.6590 14.55612676404095
CAPE1
1 31130U 07012P 14330.89428428 .00001675 00000-0 37621-3 0 2189
2 31130 097.9562 300.3688 0097335 225.0733 134.2539 14.54900067403465
